Find Starlink 32588

NORAD ID: 61866 Int'l Des: 2024-202 Owner: SPXS Country: US Constellation: starlink operational
LEOCIRCULAR

現在のビュー

3D地球を読み込み中...

About Starlink 32588

Starlink 32588 (NORAD 61866) is a starlink constellation satellite (v2 mini) launched Nov 7, 2024 by SPXS of US. It operates in LEO, CIRCULAR orbit with a mass of 730.00 kg.

Starlink 32588について

説明を読み込み中...

次回通過

Passes for default location (London). Set your location on the main map for personalized predictions.

高度履歴

Loading altitude history...

軌道要素

1 61866U 24202X 26194.61810235 .00001287 00000-0 56297-4 0 9996
2 61866 43.0011 247.0838 0001681 293.5071 66.5604 15.27583568 94597
Epoch: Jul 13, 2026 • Age: 25 hours

現在のステータス

高度 481.8 km
遠地点 / 近地点 N/A
速度 7.63 km/s
衛星直下点 5.51°N, 74.87°E
打ち上げ日 Nov 7, 2024
運用期間 1.6 years
タイプ internet

技術仕様

分類 Payload
質量 730.00 kg
乾燥質量 700.00 kg
総質量 730.00 kg
長さ 0.30 m
直径 4.10 m
スパン 29.00 m
形状 Box + pan
製造者 SPXS
バスタイプ Starlink V2M
フェーズステータス In Orbit
所有者/国 SPXS/US

Most Searched